Location: México DF
(19.4326°N, 99.1332°W)
Time: 01:24:13
(UTC+00:00)

ISS - Pass Details

Date: 08 May 2026
Orbit: 414 x 424 km, 51.6° (Epoch: 15 May)

Event Time Altitude Azimuth Distance (km) Brightness Sun altitude
Rises 01:42:11 0° 215° (SW) 2,334 0.2 -9.8°
Reaches altitude 10° 01:44:16 10° 214° (SW) 1,473 -0.8 -10.3°
Maximum altitude 01:47:34 77° 127° (SE) 424 -3.9 -11.0°
Drops below altitude 10° 01:50:52 10° 42° (NE) 1,476 -1.2 -11.7°
Sets 01:52:58 0° 41° (NE) 2,339 -0.1 -12.1°
